TimeCST,TemperatureF,Dew PointF,Humidity,Sea Level PressureIn,VisibilityMPH,Wind Direction,Wind SpeedMPH,Gust SpeedMPH,PrecipitationIn,Events,Conditions,WindDirDegrees,DateUTC
1:53 AM,36.0,34.0,93,30.10,10.0,North,3.5,-,N/A,,Clear,350,2013-02-06 07:53:00
2:41 AM,35.6,35.6,100,30.11,8.0,Calm,Calm,-,N/A,,Mostly Cloudy,0,2013-02-06 08:41:00
2:48 AM,35.6,33.8,93,30.11,8.0,Calm,Calm,-,N/A,,Scattered Clouds,0,2013-02-06 08:48:00
2:53 AM,36.0,34.0,93,30.11,8.0,Calm,Calm,-,N/A,,Scattered Clouds,0,2013-02-06 08:53:00
3:53 AM,37.0,36.0,96,30.14,7.0,NNE,4.6,-,N/A,,Clear,20,2013-02-06 09:53:00
4:53 AM,39.0,37.9,96,30.16,7.0,NE,5.8,-,N/A,,Clear,50,2013-02-06 10:53:00
5:53 AM,37.0,35.1,93,30.17,8.0,NE,6.9,-,N/A,,Clear,40,2013-02-06 11:53:00
6:53 AM,37.9,35.1,89,30.19,7.0,NE,3.5,-,N/A,,Clear,50,2013-02-06 12:53:00
7:53 AM,39.9,37.0,89,30.22,8.0,NE,8.1,-,N/A,,Clear,40,2013-02-06 13:53:00
8:53 AM,44.1,37.0,76,30.22,10.0,ENE,9.2,-,N/A,,Clear,60,2013-02-06 14:53:00
9:53 AM,48.0,36.0,63,30.24,10.0,ESE,8.1,-,N/A,,Clear,110,2013-02-06 15:53:00
10:53 AM,51.1,36.0,56,30.25,10.0,ESE,4.6,-,N/A,,Clear,110,2013-02-06 16:53:00
11:53 AM,55.0,39.0,55,30.19,10.0,ENE,8.1,-,N/A,,Clear,60,2013-02-06 17:53:00
12:53 PM,57.0,37.9,49,30.17,10.0,ENE,5.8,-,N/A,,Clear,70,2013-02-06 18:53:00
1:53 PM,57.9,36.0,44,30.16,10.0,ENE,4.6,-,N/A,,Clear,70,2013-02-06 19:53:00
2:53 PM,60.1,37.0,42,30.14,10.0,Calm,Calm,-,N/A,,Clear,0,2013-02-06 20:53:00
3:53 PM,57.0,37.0,47,30.13,10.0,ESE,4.6,-,N/A,,Clear,110,2013-02-06 21:53:00
4:53 PM,55.9,36.0,47,30.11,10.0,East,3.5,-,N/A,,Clear,80,2013-02-06 22:53:00
5:53 PM,54.0,34.0,47,30.12,10.0,Calm,Calm,-,N/A,,Clear,0,2013-02-06 23:53:00
6:53 PM,52.0,35.1,53,30.13,10.0,Calm,Calm,-,N/A,,Clear,0,2013-02-07 00:53:00
7:53 PM,48.0,37.9,68,30.12,10.0,East,3.5,-,N/A,,Clear,100,2013-02-07 01:53:00
8:53 PM,48.9,36.0,61,30.12,10.0,Calm,Calm,-,N/A,,Clear,0,2013-02-07 02:53:00
9:53 PM,50.0,32.0,50,30.09,10.0,East,3.5,-,N/A,,Clear,80,2013-02-07 03:53:00
10:53 PM,50.0,30.9,48,30.07,10.0,East,3.5,-,N/A,,Clear,90,2013-02-07 04:53:00
11:53 PM,48.9,32.0,52,30.08,10.0,ESE,4.6,-,N/A,,Mostly Cloudy,110,2013-02-07 05:53:00